Location: Amherst
(42.3800°N, 72.5240°W)
Time: 11:13:02
(UTC-04:00)

ISS - Pass Details

Date: 24 May 2021
Orbit: 417 x 422 km, 51.6° (Epoch: 14 June)

Event Time Altitude Azimuth Distance (km) Brightness Sun altitude
Rises 21:36:02 0° 301° (WNW) 2,366 1.8 -12.9°
Reaches altitude 10° 21:38:38 10° 322° (NW) 1,502 0.5 -13.2°
Maximum altitude 21:41:00 18° 7° (N) 1,122 -1.1 -13.5°
Drops below altitude 10° 21:43:23 10° 52° (NE) 1,503 -1.0 -13.8°
Enters shadow 21:45:13 - 68° (ENE) 2,093 -0.4 -14.0°
